Die Wichtigste » das Wetter in Italien » Friaul-Julisch Venetien » Grado » Meteograms hourly weather

Grado, Meteogramm

Grado: stundensatz wetter
Freitag, 27 März
Zeit Der Niederschlag Die Temperatur Fühlt Der Druck Die Feuchtigkeit Der Wind
18:00 0.03 mm +10.1° +10.3° 760 mmHg 82% 3 m/S, N
19:00 0.02 mm +9.6° +9.9° 760 mmHg 82% 3 m/S, N
20:00 0.02 mm +9.2° +9.3° 761 mmHg 81% 3 m/S, N
21:00 0.02 mm +8.7° +8.8° 762 mmHg 80% 3 m/S, N
22:00 0 mm +8.3° +8.3° 762 mmHg 80% 3 m/S, N
23:00 0 mm +7.8° +7.8° 762 mmHg 79% 3 m/S, N
Samstag, 28 März
Zeit Der Niederschlag Die Temperatur Fühlt Der Druck Die Feuchtigkeit Der Wind
00:00 0 mm +7.3° +7.3° 762 mmHg 79% 3 m/S, N
01:00 0 mm +6.9° +6.9° 762 mmHg 79% 2 m/S, N
02:00 0 mm +6.5° +6.4° 762 mmHg 79% 2 m/S, N
03:00 0 mm +6° +6° 762 mmHg 79% 2 m/S, N
04:00 0 mm +6.1° +6° 763 mmHg 78% 2 m/S, N
05:00 0 mm +6.2° +6.1° 763 mmHg 77% 2 m/S, N
06:00 0 mm +6.3° +6.2° 763 mmHg 77% 2 m/S, NO
07:00 0 mm +8.5° +8.3° 763 mmHg 68% 2 m/S, NO
08:00 0 mm +10.8° +10.4° 763 mmHg 59% 2 m/S, NO
09:00 0 mm +13° +12.5° 764 mmHg 51% 2 m/S, NO
10:00 0 mm +13.9° +13.3° 763 mmHg 48% 2 m/S, N
11:00 0 mm +14.9° +14.2° 763 mmHg 46% 2 m/S, N
12:00 0 mm +15.8° +15° 763 mmHg 43% 2 m/S, NW
13:00 0 mm +15.5° +14.9° 762 mmHg 46% 2 m/S, W
14:00 0 mm +15.3° +14.7° 762 mmHg 48% 2 m/S, W
15:00 0 mm +15.1° +14.6° 761 mmHg 51% 2 m/S, W
16:00 0 mm +12.9° +12.6° 762 mmHg 59% 2 m/S, W
17:00 0 mm +10.7° +10.6° 762 mmHg 68% 2 m/S, W
18:00 0 mm +8.6° +8.5° 763 mmHg 76% 1 m/S, W
19:00 0 mm +8.1° +8° 763 mmHg 77% 1 m/S, W
20:00 0 mm +7.5° +7.5° 763 mmHg 77% 1 m/S, NW
21:00 0 mm +7° +7° 764 mmHg 77% 1 m/S, NO
22:00 0 mm +6.7° +6.7° 763 mmHg 78% 1 m/S, NO
23:00 0 mm +6.4° +6.3° 763 mmHg 78% 1 m/S, O
Sonntag, 29 März
Zeit Der Niederschlag Die Temperatur Fühlt Der Druck Die Feuchtigkeit Der Wind
00:00 0 mm +6.1° +6° 763 mmHg 78% 1 m/S, SO
01:00 0 mm +6° +5.9° 763 mmHg 78% 1 m/S, O
02:00 0 mm +6° +5.9° 762 mmHg 77% 1 m/S, NO
04:00 0 mm +6° +5.8° 762 mmHg 77% 1 m/S, N
04:00 0 mm +6.7° +6.6° 761 mmHg 76% 1 m/S, NO
05:00 0 mm +7.4° +7.3° 761 mmHg 74% 1 m/S, NO
06:00 0 mm +8.1° +8° 761 mmHg 73% 1 m/S, O
07:00 0 mm +9.7° +9.5° 761 mmHg 67% 1 m/S, SO
08:00 0 mm +11.3° +11.1° 760 mmHg 62% 1 m/S, S
09:00 0 mm +12.9° +12.6° 760 mmHg 56% 1 m/S, SW
10:00 0 mm +13.6° +13.2° 759 mmHg 55% 1 m/S, SW
11:00 0 mm +14.2° +13.8° 759 mmHg 54% 2 m/S, SW
12:00 0 mm +14.9° +14.4° 758 mmHg 53% 2 m/S, SW
13:00 0 mm +14.5° +14.1° 758 mmHg 55% 2 m/S, SW
14:00 0 mm +14.1° +13.8° 757 mmHg 57% 2 m/S, S
15:00 0 mm +13.7° +13.5° 757 mmHg 60% 2 m/S, S
16:00 0 mm +12.3° +12.2° 757 mmHg 66% 1 m/S, S
17:00 0 mm +10.9° +10.9° 757 mmHg 73% 1 m/S, S

Auch

Meteograms hourly weather Die Wetterkarte Wetterübersicht
Meteograms hourly weather Die Wetterkarte Wetterübersicht

Market


Wetter widget


 
das Wetter in Österreich:
Über das Projekt
© meteoprog.at 2003-2015.
Meteoprog.ua - погода в Украине 0.1322
sitemap